ITY427 LICJ-LICG

Flight info

Callsign ITY427
Flight time 0h 26m
Altitude 19000
Route TRP L869 MEGAN M740 ROBET
Aircraft E175/M-SDE3GILORVW/S

Departure

Time 2026-04-27 14:30
Airport Falcone–Borsellino Airport (LICJ)

Arrival

Time 2026-04-27 14:57
Airport Pantelleria Airport (LICG)
Time Latitude Longitude Altitude Speed Heading
2026-04-27 14:20 38.17483 13.08806 51 ft 0 kts 67°
2026-04-27 14:30 38.17602 13.09141 51 ft 88 kts 65°
2026-04-27 14:30 38.17960 13.10183 102 ft 163 kts 66°
2026-04-27 14:30 38.18461 13.11645 757 ft 199 kts 60°
2026-04-27 14:30 38.19396 13.13083 1676 ft 225 kts 41°
2026-04-27 14:31 38.20792 13.13901 2443 ft 210 kts
2026-04-27 14:31 38.22160 13.13929 2908 ft 190 kts 357°
2026-04-27 14:31 38.23545 13.13829 3538 ft 204 kts 352°
2026-04-27 14:31 38.24822 13.13112 4378 ft 204 kts 311°
2026-04-27 14:32 38.25411 13.11529 5223 ft 200 kts 270°
2026-04-27 14:32 38.25010 13.09896 6095 ft 196 kts 228°
2026-04-27 14:32 38.23899 13.08956 6953 ft 191 kts 206°
2026-04-27 14:32 38.22684 13.08253 7680 ft 193 kts 205°
2026-04-27 14:33 38.21422 13.07537 8218 ft 204 kts 207°
2026-04-27 14:33 38.20333 13.06379 8754 ft 209 kts 236°
2026-04-27 14:33 38.19536 13.04791 9335 ft 217 kts 240°
2026-04-27 14:33 38.18751 13.03115 9913 ft 225 kts 240°
2026-04-27 14:34 38.17947 13.01372 10446 ft 233 kts 241°
2026-04-27 14:34 38.17099 12.99572 10977 ft 242 kts 238°
2026-04-27 14:34 38.16124 12.97781 11506 ft 251 kts 237°
2026-04-27 14:34 38.15090 12.95938 12052 ft 261 kts 237°
2026-04-27 14:35 38.14006 12.94023 12605 ft 272 kts 237°
2026-04-27 14:35 38.12892 12.92065 13156 ft 283 kts 237°
2026-04-27 14:35 38.11718 12.90003 13719 ft 294 kts 237°
2026-04-27 14:35 38.10501 12.87866 14238 ft 301 kts 237°
2026-04-27 14:36 38.09269 12.85700 14726 ft 303 kts 237°
2026-04-27 14:36 38.08028 12.83524 15214 ft 305 kts 236°
2026-04-27 14:36 38.06779 12.81332 15710 ft 308 kts 236°
2026-04-27 14:36 38.05520 12.79121 16197 ft 309 kts 236°
2026-04-27 14:37 38.04247 12.76892 16720 ft 314 kts 236°
2026-04-27 14:37 38.02961 12.74642 16903 ft 315 kts 236°
2026-04-27 14:37 38.01675 12.72391 16964 ft 315 kts 236°
2026-04-27 14:37 38.00390 12.70142 16994 ft 315 kts 236°
2026-04-27 14:38 37.99104 12.67894 17007 ft 315 kts 236°
2026-04-27 14:38 37.97836 12.65677 17018 ft 315 kts 235°
2026-04-27 14:38 37.96550 12.63437 16996 ft 312 kts 236°
2026-04-27 14:38 37.95279 12.61220 16997 ft 310 kts 236°
2026-04-27 14:39 37.94011 12.59003 17007 ft 311 kts 236°
2026-04-27 14:39 37.92737 12.56782 17001 ft 312 kts 236°
2026-04-27 14:39 37.91460 12.54560 16995 ft 311 kts 236°
2026-04-27 14:39 37.90034 12.52499 16992 ft 316 kts 219°
2026-04-27 14:40 37.88065 12.51237 17022 ft 321 kts 204°
2026-04-27 14:40 37.85952 12.50309 17014 ft 322 kts 201°
2026-04-27 14:40 37.83817 12.49455 17008 ft 322 kts 200°
2026-04-27 14:40 37.81676 12.48630 17002 ft 322 kts 200°
2026-04-27 14:41 37.79530 12.47817 16996 ft 322 kts 200°
2026-04-27 14:41 37.77385 12.47009 17001 ft 322 kts 199°
2026-04-27 14:41 37.75237 12.46204 17010 ft 322 kts 199°
2026-04-27 14:41 37.73111 12.45408 16996 ft 322 kts 199°
2026-04-27 14:42 37.70952 12.44600 17000 ft 322 kts 199°
2026-04-27 14:42 37.68806 12.43797 17011 ft 322 kts 199°
2026-04-27 14:42 37.66649 12.42996 16691 ft 326 kts 199°
2026-04-27 14:42 37.64465 12.42189 16082 ft 327 kts 199°
2026-04-27 14:43 37.62303 12.41395 15506 ft 328 kts 199°
2026-04-27 14:43 37.60110 12.40593 14929 ft 328 kts 199°
2026-04-27 14:43 37.57922 12.39793 14371 ft 327 kts 199°
2026-04-27 14:43 37.55739 12.38995 13807 ft 326 kts 199°
2026-04-27 14:44 37.53560 12.38199 13178 ft 326 kts 199°
2026-04-27 14:44 37.51385 12.37411 12569 ft 325 kts 199°
2026-04-27 14:44 37.49216 12.36629 11971 ft 324 kts 199°
2026-04-27 14:44 37.47051 12.35849 11390 ft 323 kts 199°
2026-04-27 14:45 37.44889 12.35070 10804 ft 322 kts 199°
2026-04-27 14:45 37.42738 12.34294 10230 ft 321 kts 199°
2026-04-27 14:45 37.40592 12.33518 9636 ft 320 kts 199°
2026-04-27 14:45 37.38453 12.32732 9020 ft 319 kts 199°
2026-04-27 14:46 37.36328 12.31932 8422 ft 318 kts 199°
2026-04-27 14:46 37.34216 12.31115 7830 ft 317 kts 199°
2026-04-27 14:46 37.32163 12.30152 7240 ft 314 kts 211°
2026-04-27 14:46 37.30432 12.28563 6674 ft 311 kts 220°
2026-04-27 14:47 37.28790 12.26808 6078 ft 309 kts 222°
2026-04-27 14:47 37.27188 12.25007 5489 ft 308 kts 223°
2026-04-27 14:47 37.25609 12.23195 4893 ft 307 kts 223°
2026-04-27 14:47 37.24046 12.21378 4303 ft 306 kts 223°
2026-04-27 14:48 37.22526 12.19592 4120 ft 291 kts 223°
2026-04-27 14:48 37.19605 12.16522 3961 ft 260 kts 202°
2026-04-27 14:48 37.17888 12.16125 3950 ft 245 kts 184°
2026-04-27 14:49 37.16207 12.16048 3951 ft 238 kts 181°
2026-04-27 14:49 37.14562 12.16042 3959 ft 236 kts 180°
2026-04-27 14:49 37.12914 12.16062 3977 ft 238 kts 179°
2026-04-27 14:49 37.11265 12.16247 3995 ft 238 kts 171°
2026-04-27 14:50 37.09628 12.16621 4013 ft 244 kts 169°
2026-04-27 14:50 37.07926 12.17049 4024 ft 253 kts 169°
2026-04-27 14:50 37.06199 12.17507 4023 ft 254 kts 168°
2026-04-27 14:50 37.04495 12.17974 4012 ft 252 kts 168°
2026-04-27 14:51 37.02823 12.18438 3972 ft 241 kts 168°
2026-04-27 14:51 37.01197 12.18892 3794 ft 239 kts 168°
2026-04-27 14:51 36.99579 12.19337 3607 ft 237 kts 168°
2026-04-27 14:51 36.98510 12.19625 3490 ft 237 kts 168°
2026-04-27 14:52 36.96356 12.20198 3256 ft 237 kts 168°
2026-04-27 14:52 36.94748 12.20619 3111 ft 235 kts 168°
2026-04-27 14:52 36.93149 12.21032 3039 ft 234 kts 168°
2026-04-27 14:52 36.91541 12.21369 2997 ft 235 kts 180°
2026-04-27 14:53 36.89919 12.21112 2994 ft 235 kts 190°
2026-04-27 14:53 36.88314 12.20697 2989 ft 236 kts 194°
2026-04-27 14:53 36.86809 12.19906 2988 ft 235 kts 209°
2026-04-27 14:53 36.85562 12.18612 2953 ft 236 kts 237°
2026-04-27 14:54 36.84929 12.16750 2815 ft 231 kts 254°
2026-04-27 14:54 36.84537 12.14823 2672 ft 228 kts 257°
2026-04-27 14:54 36.84226 12.12891 2511 ft 227 kts 261°
2026-04-27 14:54 36.83994 12.10940 2324 ft 228 kts 262°
2026-04-27 14:55 36.83792 12.08987 2114 ft 226 kts 263°
2026-04-27 14:55 36.83566 12.07058 1903 ft 223 kts 261°
2026-04-27 14:55 36.83300 12.05205 1703 ft 208 kts 259°
2026-04-27 14:55 36.83012 12.03531 1520 ft 188 kts 256°
2026-04-27 14:56 36.82690 12.02003 1344 ft 184 kts 255°
2026-04-27 14:56 36.82372 12.00539 1265 ft 163 kts 255°
2026-04-27 14:56 36.82098 11.99234 1027 ft 154 kts 256°
2026-04-27 14:56 36.81847 11.97953 727 ft 151 kts 258°
2026-04-27 14:57 36.81632 11.96799 642 ft 100 kts 253°
2026-04-27 14:57 36.81524 11.96362 644 ft 18 kts 269°
2026-04-27 14:57 36.81539 11.96338 645 ft 1 kts 60°
2026-04-27 14:57 36.81555 11.96405 642 ft 13 kts 75°
2026-04-27 14:58 36.81583 11.96549 641 ft 20 kts 77°
2026-04-27 14:58 36.81620 11.96739 643 ft 25 kts 76°
2026-04-27 14:58 36.81690 11.96917 640 ft 22 kts 27°
2026-04-27 14:58 36.81795 11.96832 631 ft 9 kts 293°
2026-04-27 14:59 36.81804 11.96799 639 ft 2 kts 314°
2026-04-27 14:59 36.81818 11.96804 631 ft 0 kts 58°
2026-04-27 14:59 36.81819 11.96806 631 ft 0 kts 63°